• In Belarus
  • List of Countries
  • For 7 days
  • Water Temperature
  • Satellite Maps
  • Weather Map
  • Weather Widgets
  • user-avatar
    Login

    Hourly Weather Pozhezha

    Today, 21 April, Sunday

    Time Temperature Precipitation Wind Pressure Humidity
    00:00 +8°C° 0 mm 2 mps 737 mmHg 98%
    01:00 +9°C° 0 mm 1 mps 737 mmHg 99%
    02:00 +9°C° 0 mm 1 mps 736 mmHg 97%
    03:00 +8°C° 0 mm 2 mps 736 mmHg 98%
    04:00 +9°C° 0 mm 1 mps 736 mmHg 98%
    05:00 +7°C° 0 mm 2 mps 735 mmHg 100%
    06:00 +7°C° 0 mm 2 mps 735 mmHg 100%
    07:00 +8°C° 0 mm 2 mps 735 mmHg 100%
    08:00 +10°C° 0 mm 2 mps 735 mmHg 98%
    09:00 +11°C° 0 mm 3 mps 735 mmHg 96%
    10:00 +12°C° 0 mm 5 mps 736 mmHg 87%
    11:00 +12°C° 0 mm 5 mps 735 mmHg 82%
    12:00 +10°C° 0.4 mm 7 mps 735 mmHg 94%
    13:00 +11°C° 0.6 mm 4 mps 734 mmHg 93%
    14:00 +12°C° 0 mm 3 mps 734 mmHg 87%
    15:00 +14°C° 0 mm 2 mps 734 mmHg 82%
    16:00 +13°C° 0.4 mm 2 mps 733 mmHg 91%
    17:00 +8°C° 2.8 mm 5 mps 733 mmHg 98%
    18:00 +10°C° 0.3 mm 2 mps 733 mmHg 97%
    19:00 +9°C° 1.1 mm 2 mps 733 mmHg 100%
    20:00 +9°C° 1.2 mm 2 mps 733 mmHg 100%
    21:00 +10°C° 0.1 mm 1 mps 733 mmHg 100%
    22:00 +10°C° 0 mm 1 mps 733 mmHg 100%
    23:00 +9°C° 0 mm 0 mps 733 mmHg 100%

    Tomorrow, 22 April, Monday

    Time Temperature Precipitation Wind Pressure Humidity
    00:00 +8°C° 0.3 mm 0 mps 733 mmHg 100%
    01:00 +9°C° 0.1 mm 1 mps 733 mmHg 100%
    02:00 +8°C° 0.2 mm 2 mps 733 mmHg 100%
    03:00 +8°C° 0.6 mm 3 mps 733 mmHg 100%
    04:00 +6°C° 0.4 mm 4 mps 733 mmHg 100%
    05:00 +6°C° 0.9 mm 5 mps 734 mmHg 100%
    06:00 +5°C° 1.1 mm 5 mps 734 mmHg 100%
    07:00 +5°C° 1 mm 5 mps 735 mmHg 100%
    08:00 +4°C° 0.4 mm 6 mps 735 mmHg 100%
    09:00 +4°C° 0 mm 7 mps 736 mmHg 99%
    10:00 +5°C° 0 mm 7 mps 736 mmHg 99%
    11:00 +6°C° 0 mm 7 mps 737 mmHg 97%
    12:00 +7°C° 0 mm 8 mps 737 mmHg 91%
    13:00 +9°C° 0 mm 8 mps 737 mmHg 87%
    14:00 +9°C° 0 mm 8 mps 737 mmHg 85%
    15:00 +10°C° 0 mm 8 mps 737 mmHg 84%
    16:00 +9°C° 0 mm 8 mps 737 mmHg 83%
    17:00 +9°C° 0 mm 7 mps 737 mmHg 84%
    18:00 +9°C° 0 mm 6 mps 737 mmHg 86%
    19:00 +8°C° 0 mm 5 mps 737 mmHg 90%
    20:00 +7°C° 0 mm 5 mps 738 mmHg 93%
    21:00 +6°C° 0 mm 5 mps 738 mmHg 99%
    22:00 +6°C° 0 mm 5 mps 738 mmHg 99%
    23:00 +5°C° 0 mm 5 mps 738 mmHg 100%

    Day after tomorrow, 23 April, Tuesday

    Time Temperature Precipitation Wind Pressure Humidity
    00:00 +5°C° 0 mm 5 mps 739 mmHg 99%
    01:00 +5°C° 0 mm 5 mps 738 mmHg 99%
    02:00 +3°C° 0 mm 5 mps 739 mmHg 98%
    03:00 +2°C° 0 mm 5 mps 739 mmHg 98%
    04:00 +2°C° 0 mm 5 mps 739 mmHg 98%
    05:00 +1°C° 0 mm 5 mps 739 mmHg 97%
    06:00 +1°C° 0 mm 5 mps 739 mmHg 96%
    07:00 +3°C° 0 mm 6 mps 739 mmHg 93%
    08:00 +4°C° 0 mm 6 mps 740 mmHg 91%
    09:00 +6°C° 0 mm 7 mps 740 mmHg 88%
    10:00 +7°C° 0 mm 8 mps 740 mmHg 86%
    11:00 +9°C° 0 mm 8 mps 740 mmHg 85%
    12:00 +10°C° 0 mm 9 mps 740 mmHg 83%
    13:00 +11°C° 0 mm 9 mps 740 mmHg 83%
    14:00 +11°C° 0 mm 9 mps 739 mmHg 80%
    15:00 +11°C° 0 mm 9 mps 739 mmHg 82%
    16:00 +11°C° 0 mm 8 mps 739 mmHg 83%
    17:00 +11°C° 0 mm 8 mps 738 mmHg 84%
    18:00 +10°C° 0 mm 8 mps 738 mmHg 86%
    19:00 +9°C° 0 mm 8 mps 738 mmHg 89%
    20:00 +9°C° 0 mm 7 mps 738 mmHg 92%
    21:00 +9°C° 0 mm 7 mps 738 mmHg 94%
    22:00 +8°C° 0 mm 7 mps 738 mmHg 94%
    23:00 +8°C° 0 mm 7 mps 739 mmHg 96%

    24 April, Wednesday

    Time Temperature Precipitation Wind Pressure Humidity
    00:00 +8°C° 0 mm 7 mps 739 mmHg 96%
    01:00 +6°C° 0 mm 7 mps 738 mmHg 99%
    02:00 +6°C° 0 mm 7 mps 738 mmHg 99%
    03:00 +6°C° 0 mm 7 mps 738 mmHg 99%
    04:00 +5°C° 0.1 mm 7 mps 738 mmHg 99%
    05:00 +5°C° 0 mm 8 mps 738 mmHg 97%
    06:00 +5°C° 0 mm 8 mps 738 mmHg 97%
    07:00 +5°C° 0 mm 8 mps 738 mmHg 98%
    08:00 +6°C° 0 mm 8 mps 738 mmHg 97%
    09:00 +7°C° 0 mm 8 mps 738 mmHg 97%
    10:00 +10°C° 0 mm 8 mps 739 mmHg 96%
    11:00 +11°C° 0 mm 9 mps 739 mmHg 97%
    12:00 +12°C° 0 mm 8 mps 739 mmHg 97%
    13:00 +12°C° 0 mm 9 mps 739 mmHg 97%
    14:00 +12°C° 0 mm 9 mps 738 mmHg 96%

    25 April, Thursday

    Time Temperature Precipitation Wind Pressure Humidity

    26 April, Friday

    Time Temperature Precipitation Wind Pressure Humidity
    Show more